Simultaneous Nadir Overpasses (SNOs) Predictions

Prediction of SNOs between GOES-16 and NOAA-19 Satellite Orbit:

Table of predicted SNOs for the next 14.0 days since TLE Epoch: 2/15/2020
Index Date Time (GOES-16) GOES-16 Lat,Lon NOAA-19 Lat,Lon Distance(km) Time Diff (sec)
1 02/15/2020 10:26:30 0.05, -75.21 -0.36, -73.34 212.86 80
2 02/17/2020 22:47:42 -0.05, -75.21 -0.80, -78.35 359.22 80
3 02/18/2020 22:36:03 -0.05, -75.22 -0.12, -75.51 33.10 80
4 02/19/2020 22:27:03 -0.06, -75.23 0.56, -72.66 293.20 80
5 02/22/2020 10:45:18 0.06, -75.26 0.59, -77.61 267.16 80
6 02/23/2020 10:36:19 0.06, -75.28 -0.08, -74.76 59.71 80
7 02/24/2020 10:24:39 0.06, -75.29 -0.75, -71.91 386.68 80
8 02/26/2020 22:43:09 -0.06, -75.33 -0.42, -76.92 180.92 80
9 02/27/2020 22:34:09 -0.06, -75.35 0.21, -74.06 146.78 80
10 02/28/2020 22:22:29 -0.06, -75.37 0.90, -71.22 474.51 80




NCC Satellite Simultaneous Nadir Overpasses (SNOs) Prediction Service
